Regional Weather Roundup
Issued by NWS

Home | Current Version | Previous Version | Graphics & Text | Print | Product List | Glossary On
Versions: 1 2 3 4 5 6 7 8 9 10 11 12 13 14 15 16 17 18 19 20 21 22 23 24 25 26 27 28 29 30 31 32 33 34 35 36 37 38 39 40 41 42 43 44 45 46 47 48 49
000
ASUS45 KCYS 262010
RWRWY

WYOMING REGIONAL WEATHER ROUNDUP
NATIONAL WEATHER SERVICE CHEYENNE WY
100 PM MST MON JAN 26 2015

NOTE:  "FAIR" INDICATES FEW OR NO CLOUDS BELOW 12,000 FEET
WITH NO SIGNIFICANT WEATHER AND/OR OBSTRUCTIONS TO VISIBILITY.

WYZ001-262100-
YELLOWSTONE NATIONAL PARK

CITY           SKY/WX    TMP DP  RH WIND       PRES   REMARKS
LK YELLOWSTONE   N/A     27  19  72 E3        30.39F
W YELLOWSTONE  NOT AVBL

$$
WYZ002>013-054>058-071-098>099-262100-
NORTHERN WYOMING

CITY           SKY/WX    TMP DP  RH WIND       PRES   REMARKS
JACKSON        CLOUDY    25  23  93 CALM      30.41F FOG
CODY           FAIR      39  30  70 N3        30.17F
GREYBULL       FAIR      35  26  69 CALM      30.22F
WORLAND        FAIR      33  26  75 SW5       30.20F WCI  29
SHERIDAN       FAIR      62  32  32 S5        30.06F
BUFFALO          N/A     67  26  21 SE9       30.13F
GILLETTE       FAIR      64  31  28 W12       30.09F
HULETT           N/A    N/A N/A N/A MISG        N/A
NEWCASTLE      FAIR      59  28  31 N7        30.12F

$$
WYZ014>020-022>026-101>103-262100-
CENTRAL WYOMING

CITY           SKY/WX    TMP DP  RH WIND       PRES   REMARKS
BIG PINEY      FAIR      39  24  55 CALM      30.38F
PINEDALE       FAIR      34  27  75 CALM      30.38F
DUBOIS         FAIR      59  23  25 NW7       30.29F
LANDER         FAIR      43  27  53 CALM      30.24F
RIVERTON       FAIR      42  27  55 CALM      30.26F
CASPER         FAIR      53  29  39 SW20G31   30.22F
DOUGLAS        FAIR      65  26  23 W15       30.18F

$$
WYZ021-027>030-104>119-262100-
SOUTHERN WYOMING

CITY           SKY/WX    TMP DP  RH WIND       PRES   REMARKS
EVANSTON       FAIR      46  32  58 CALM      30.36F
KEMMERER       FAIR      43  30  61 NW3       30.36F
FORT BRIDGER   FAIR      49  32  51 NE5       30.39F
ROCK SPRINGS   FAIR      49  28  44 N3        30.36F
DIXON          FAIR      42  28  59 CALM      30.42F
RAWLINS        FAIR      52  26  36 SW15      30.36F
SARATOGA       FAIR      52  27  37 SE5       30.37F
LARAMIE        FAIR      59  23  25 N6        30.30F
CHEYENNE       FAIR      65  20  17 W16G22    30.23F
TORRINGTON     FAIR      66  28  24 W8        30.15F
PINE BLUFFS    FAIR      66  21  18 NW21G26   30.20F

$$


USA.gov is the U.S. government's official web portal to all federal, state and local government web resources and services.